[[{"header":{"parameterUnit":"m.s-1","parameterCategory":1,"la1":30.2992,"la2":30.254,"lo1":-89.0895,"lo2":-89.0443,"dy":0.0025,"dx":0.0025,"nx":19,"ny":19,"refTime":"2026-04-21T21:00:00:Z","depth":0,"parameterNumber":2,"parameterNumberName":"U-component_of_WINDS"},"data":[0,0,0,-3.3846,-3.385,-3.403,-3.4031,-3.4261,-3.4263,0,0,0,0,0,0,0,0,0,0,0,-3.3792,-3.3793,-3.3845,-3.385,-3.403,-3.4031,-3.4261,-3.4263,0,0,0,0,0,0,0,0,0,0,0,-3.3791,-3.3793,-3.3795,-3.3851,-3.403,-3.4031,-3.426,-3.4124,0,0,0,0,0,0,0,0,0,0,-3.395,-3.3899,-3.3793,-3.3795,-3.3852,-3.4029,-3.4031,-3.4118,-3.4133,-3.418,0,-3.422,0,-3.4245,-3.4279,-3.4279,0,0,0,-3.385,-3.3887,-3.3936,-3.3795,-3.3853,-3.4029,-3.3949,-3.4126,-3.4143,-3.4199,-3.4223,-3.4232,-3.4249,-3.428,-3.4281,-3.4547,-3.4548,0,0,-3.384,-3.3824,-3.3924,-3.3947,-3.3918,-3.3943,-3.3954,-3.4137,-3.4162,-3.4224,-3.4237,-3.4253,-3.4282,-3.4283,-3.4546,-3.4547,0,0,0,-3.3812,-3.3817,-3.3862,-3.3937,-3.397,-3.3948,-3.3961,-3.4154,-3.417,-3.424,-3.4256,-3.4283,-3.4286,-3.4545,-3.4547,-3.4591,0,0,0,-3.3806,-3.38,-3.3857,-3.3849,-3.3966,-3.4064,-3.3974,-3.4157,-3.4178,-3.4255,-3.4283,-3.4288,-3.4543,-3.4546,-3.4587,-3.4614,0,0,0,-3.378,-3.3797,-3.3823,-3.3848,-3.3925,-3.4061,-3.4088,-3.4162,-3.4188,-3.428,-3.4289,-3.4543,-3.4545,-3.4583,-3.4608,-3.4679,0,0,0,-3.3749,-3.386,-3.3824,-3.3954,-3.3923,-3.4087,-3.4087,-3.421,-3.4294,-3.4284,-3.4544,-3.4546,-3.4582,-3.4605,-3.4675,-3.4736,-3.476,0,0,-3.388,-3.3875,-3.3953,-3.3926,-3.4092,-3.4061,-3.4234,-3.4327,-3.4351,-3.448,-3.4487,-3.4588,-3.4608,-3.4679,-3.4899,-3.4918,0,0,0,-3.3989,-3.4045,-3.4093,-3.4172,-3.4245,-3.431,-3.4378,-3.4413,-3.4524,-3.4414,-3.4634,-3.4646,-3.4688,-3.4718,-3.4734,-3.4771,-3.4559,-3.4559,-3.4559,-3.4151,-3.4175,-3.4306,-3.4353,-3.443,-3.4499,-3.4564,-3.4622,-3.4625,-3.4676,-3.4715,-3.4846,-3.488,-3.4892,-3.4931,-3.4749,-3.4749,-3.475,-3.475,-3.4345,-3.4428,-3.4429,-3.4556,-3.4582,-3.469,-3.4761,-3.476,-3.4864,-3.4818,-3.4857,-3.4805,-3.4912,-3.4947,-3.4753,-3.4753,-3.4752,-3.4752,-3.4752,-3.4453,-3.4497,-3.4537,-3.4655,-3.4743,-3.4787,-3.4887,-3.4907,-3.4927,-3.4965,-3.5008,-3.5007,-3.5009,-3.4984,-3.4984,-3.4985,-3.4985,-3.4986,-3.4986,-3.4549,-3.4593,-3.4675,-3.4763,-3.4817,-3.489,-3.4962,-3.5016,-3.508,-3.5087,-3.5088,-3.5085,-3.4918,-3.4875,-3.4993,-3.4992,-3.4991,-3.499,-3.499,-3.4737,-3.4698,-3.4824,-3.4878,-3.4983,-3.507,-3.5094,-3.5202,-3.525,-3.5299,-3.5289,-3.5162,-3.5158,-3.5146,-3.511,-3.5283,-3.5283,-3.5283,-3.5283,-3.4828,-3.4829,-3.4963,-3.5048,-3.5133,-3.5169,-3.5311,-3.5368,-3.5421,-3.5452,-3.5431,-3.5386,-3.5372,-3.5377,-3.536,-3.5327,-3.555,-3.5551,-3.5551,-3.4945,-3.4955,-3.5072,-3.5123,-3.5207,-3.5279,-3.5414,-3.5512,-3.5564,-3.5562,-3.5477,-3.5466,-3.5394,-3.5369,-3.5365,-3.5337,-3.5278,0,0]},{"header":{"parameterUnit":"m.s-1","parameterCategory":1,"la1":30.2992,"la2":30.254,"lo1":-89.0895,"lo2":-89.0443,"dy":0.0025,"dx":0.0025,"nx":19,"ny":19,"refTime":"2026-04-21T21:00:00:Z","depth":0,"parameterNumber":3,"parameterNumberName":"V-component_of_WINDS"},"data":[0,0,0,4.4256,4.4255,4.4172,4.4172,4.4094,4.4093,0,0,0,0,0,0,0,0,0,0,0,4.43,4.43,4.4256,4.4255,4.4172,4.4172,4.4094,4.4093,0,0,0,0,0,0,0,0,0,0,0,4.4299,4.43,4.43,4.4255,4.4173,4.4172,4.4094,4.4146,0,0,0,0,0,0,0,0,0,0,4.4221,4.428,4.43,4.43,4.4254,4.4173,4.4172,4.4148,4.4143,4.4144,0,4.4152,0,4.4122,4.409,4.409,0,0,0,4.424,4.4285,4.4246,4.43,4.4254,4.4173,4.4205,4.4145,4.4139,4.4137,4.415,4.4146,4.412,4.409,4.409,4.4149,4.415,0,0,4.4244,4.4294,4.425,4.4243,4.426,4.4208,4.4203,4.414,4.4158,4.415,4.4144,4.4119,4.4089,4.4089,4.4149,4.415,0,0,0,4.4268,4.4298,4.426,4.4247,4.423,4.4206,4.42,4.416,4.4144,4.4143,4.4118,4.4089,4.4089,4.4147,4.4149,4.4245,0,0,0,4.427,4.4311,4.4263,4.4292,4.4232,4.4195,4.4222,4.4148,4.4139,4.4119,4.4089,4.4088,4.4146,4.4148,4.424,4.4281,0,0,0,4.4298,4.4315,4.431,4.4295,4.4262,4.4194,4.4174,4.4145,4.4125,4.409,4.4088,4.4145,4.4148,4.4236,4.4274,4.431,0,0,0,4.4343,4.4396,4.4312,4.4361,4.4263,4.4256,4.4174,4.4166,4.4147,4.4089,4.4146,4.4149,4.4234,4.4269,4.4306,4.4349,4.4372,0,0,4.4437,4.4409,4.4434,4.4357,4.4378,4.4265,4.4298,4.4233,4.4184,4.4163,4.4164,4.4242,4.4273,4.4309,4.4489,4.4508,0,0,0,4.4481,4.4499,4.4494,4.448,4.4433,4.4395,4.432,4.4296,4.4276,4.4184,4.4264,4.4282,4.4301,4.4319,4.4335,4.4347,4.416,4.416,4.416,4.4684,4.462,4.4656,4.4581,4.4569,4.4491,4.4473,4.4427,4.4364,4.4384,4.4377,4.4494,4.4517,4.4529,4.4543,4.4396,4.4397,4.4397,4.4397,4.4815,4.483,4.4747,4.4752,4.4683,4.4685,4.4612,4.4568,4.4559,4.4494,4.4508,4.4441,4.4552,4.456,4.4404,4.4403,4.4402,4.4401,4.4401,4.4939,4.4935,4.4906,4.4878,4.4864,4.4786,4.4781,4.4718,4.4658,4.4672,4.4655,4.4654,4.4642,4.4669,4.4669,4.467,4.467,4.467,4.4671,4.5078,4.5043,4.5047,4.5003,4.4985,4.4953,4.4877,4.4856,4.4817,4.4771,4.477,4.4704,4.4576,4.4544,4.4677,4.4676,4.4675,4.4674,4.4674,4.523,4.5186,4.5194,4.5176,4.5118,4.5107,4.5027,4.4991,4.4965,4.4965,4.4896,4.4813,4.4778,4.4765,4.4737,4.4912,4.4912,4.4912,4.4912,4.5333,4.5311,4.5304,4.528,4.5249,4.5178,4.5186,4.5126,4.5057,4.5036,4.5002,4.4962,4.4951,4.4922,4.4906,4.4879,4.5086,4.5086,4.5086,4.5422,4.5393,4.5414,4.5348,4.5298,4.5255,4.526,4.5234,4.5146,4.5092,4.5018,4.5011,4.4944,4.4927,4.4868,4.4844,4.4794,0,0]}]]